Location: ??????????
(54.7560°N, 39.1389°E)
Time: 18:09:45
(UTC+00:00)

Cosmos 2360 Rocket - Pass Details

Date: 19 May 2025
Orbit: 834 x 842 km, 71.0° (Epoch: 20 June)

Event Time Altitude Azimuth Distance (km) Brightness Sun altitude
Rises 21:26:37 0° 325° (NW) 3,395 6.2 -15.3°
Reaches altitude 10° 21:29:07 10° 320° (NW) 2,457 5.3 -15.2°
Maximum altitude 21:34:33 52° 246° (WSW) 1,037 2.5 -15.2°
Enters shadow 21:37:49 23° 181° (S) 1,695 3.1 -15.2°
